Regional Weather Roundup
Issued by NWS

Home | Current Version | Previous Version | Graphics & Text | Print | Product List | Glossary On
Versions: 1 2 3 4 5 6 7 8 9 10 11 12 13 14 15 16 17 18 19 20 21 22 23 24 25 26 27 28 29 30 31 32 33 34 35 36 37 38 39 40 41 42 43 44 45 46 47 48 49 50
000
ASUS43 KLOT 011210
RWRIL

ILLINOIS REGIONAL WEATHER ROUNDUP
NATIONAL WEATHER SERVICE CHICAGO/ROMEOVILLE IL
700 AM CDT MON SEP 01 2014

NOTE: "FAIR" INDICATES FEW OR NO CLOUDS BELOW 12,000 FEET WITH NO
SIGNIFICANT WEATHER AND/OR OBSTRUCTIONS TO VISIBILITY.

* THESE STATIONS ARE NOT UNDER NWS QUALITY CONTROL. THEY ALSO MAY NOT
  REPORT WEATHER SUCH AS PRECIPITATION OR FOG.

ILZ001-002-007-009-015-016-024-011300-
NORTHWEST ILLINOIS

CITY           SKY/WX    TMP DP  RH WIND       PRES   REMARKS
MOLINE         CLOUDY    67  64  90 W6        29.76R
6HR MIN TEMP:  65; 6HR MAX TEMP:  76; 6HR PCP:  0.30;

STERLING*      MOCLDY    66  63  88 S6        29.72F
SAVANNA*       LGT RAIN  67  64  90 SW7       29.76R
$$

ILZ003-004-008-010-011-017-018-011300-
NORTH CENTRAL ILLINOIS

CITY           SKY/WX    TMP DP  RH WIND       PRES   REMARKS
ROCKFORD       CLOUDY    71  69  93 S15       29.71S FOG
6HR MIN TEMP:  70; 6HR MAX TEMP:  73; 6HR PCP: TRACE;

FREEPORT*      MOCLDY    65  63  92 SE6       29.73R
ROCHELLE*      MOCLDY    69  68  96 S6        29.73F FOG
DE KALB*       CLOUDY    70  69  96 S16       29.75S FOG
PERU*          MOCLDY    70  69  96 S13       29.77F
$$

ILZ005-006-012>014-019>023-011300-
NORTHEAST ILLINOIS

CITY           SKY/WX    TMP DP  RH WIND       PRES   REMARKS
CHICAGO-OHARE  CLOUDY    74  68  81 S12       29.76F
6HR MIN TEMP:  72; 6HR MAX TEMP:  75; 6HR PCP: TRACE;

CHICAGO-MIDWAY CLOUDY    76  71  85 S12       29.77F
6HR MIN TEMP:  74; 6HR MAX TEMP:  77;

AURORA         MOCLDY    72  69  90 S12       29.77S FOG
6HR MIN TEMP:  71; 6HR MAX TEMP:  73;

LANSING*         N/A    N/A N/A N/A MISG        N/A
JOLIET*        MOCLDY    73  69  89 S12       29.79F
WAUKEGAN       MOCLDY    72  69  90 S8        29.74F
6HR MIN TEMP:  72; 6HR MAX TEMP:  74;

DUPAGE AIRPORT CLOUDY    73  70  90 S13       29.75F
6HR MIN TEMP:  72; 6HR MAX TEMP:  74;

KANKAKEE*      CLOUDY    73  71  95 S10G17    29.83F
WHEELING       CLOUDY    75  70  84 S10       29.77F
6HR MIN TEMP:  73; 6HR MAX TEMP:  76;

MORRIS*        PTCLDY    73  73 100 S12G17    29.77S FOG
ROMEOVILLE*    MOCLDY    73  71  95 S15       29.78F
NORTHERLY ISL    N/A     74  69  85 S8          N/A
$$

LMZ740>746-011300-
SOUTHERN LAKE MICHIGAN

STATION/POSITION SKY/WX   TEMP    WIND        PRES    VSBY  WAVE
                          AIR SEA DIR/SP/G                  HT/PER
                          (F)     (DEG/KT/KT) (MB)    (MI)  (FT/S)
SOUTHERN BUOY              71 70  170/ 14/ 16 1008.3F
WAUKEGAN HARBOR            71     180/ 11/ 11   N/A
HARRISON CRIB              73     190/ 16/ 19   N/A
BURNHAM HARBOR             74     180/  9/ 16   N/A
CALUMET HARBOR             74     170/  8/ 11 1007.8F
MICHIGAN CITY              73     160/ 14/ 18   N/A
MICHIGAN CITY 6N           73 72  190/ 14/ 17   N/A           2/ 2
ST. JOSEPH                 73 72  160/ 16/ 19   N/A           2/ 3
$$

ILZ025>027-034>036-040-047-049-050-058-095>099-011300-
WEST-CENTRAL ILLINOIS

CITY           SKY/WX    TMP DP  RH WIND       PRES   REMARKS
QUINCY         LGT RAIN  67  64  90 S14       29.77F
GALESBURG*     CLOUDY    66  65  97 S7        29.78R
MACOMB*        CLOUDY    69  67  93 SW12G17   29.82R
JACKSONVILLE*  CLOUDY    74  72  92 SW8       29.86R FOG
PITTSFIELD*    CLOUDY    72  63  72 SW15G22   29.88S
$$

ILZ028>032-037-038-041>044-048-051>054-059>061-011300-
CENTRAL ILLINOIS

CITY           SKY/WX    TMP DP  RH WIND       PRES   REMARKS
PONTIAC        CLOUDY    75  73  94 S13       29.80S FOG
DECATUR        CLOUDY    74  71  91 S15       29.86S
PEORIA         CLOUDY    75  70  84 S12       29.78F
6HR MIN TEMP:  72; 6HR MAX TEMP:  75;

LACON*         CLOUDY    68  66  93 SE5       29.76F
LINCOLN*       MOCLDY    74  72  93 S6        29.79F FOG
SPRINGFIELD    CLOUDY    74  71  91 SW15      29.84R
6HR MIN TEMP:  74; 6HR MAX TEMP:  75;

TAYLORVILLE    MOCLDY    72  70  94 S16       29.86S FOG
$$

ILZ033-039-045-046-055>057-062-063-011300-
EAST-CENTRAL ILLINOIS

CITY           SKY/WX    TMP DP  RH WIND       PRES   REMARKS
CHAMPAIGN      CLOUDY    73  71  93 S15       29.88R FOG
DANVILLE*      CLOUDY    72  71  96 S13G20    29.86S FOG
RANTOUL*         N/A     75  71  87 S13       29.87F
MATTOON        CLOUDY    73  71  93 S13G21    29.90R
PARIS*         CLOUDY    74  72  95 S12       29.92R
$$

ILZ079-100>102-011300-
SOUTHWEST ILLINOIS

CITY           SKY/WX    TMP DP  RH WIND       PRES   REMARKS
ALTON          CLOUDY    72  72 100 S6        29.91  FOG
BELLEVILLE     PTCLDY    73  73 100 VRB6      29.91R
CAHOKIA*       PTCLDY    77  71  82 SW10G17   29.90R
SPARTA*        PTCLDY    74  71  92 S10       29.94R
$$

ILZ064>066-069>071-074>076-080>082-084>086-088>090-092>094-011300-
SOUTH-CENTRAL ILLINOIS

CITY           SKY/WX    TMP DP  RH WIND       PRES   REMARKS
CARBONDALE     CLEAR     75  70  84 SW12      29.95F
6HR MIN TEMP:  74; 6HR MAX TEMP:  76;

CAIRO*         CLOUDY    78  74  87 S12       30.00R HX  81
EFFINGHAM*     CLOUDY    73  70  88 S9        29.93R
MARION         PTCLDY    75  72  88 SW12      29.97S
MT. VERNON     MOCLDY    75  70  83 S13G21    29.94S
CENTRALIA*     MOCLDY    73  70  88 S9        29.93R
SALEM*         PTCLDY    75  73  92 SW12      29.93S
METROPOLIS*    CLOUDY    76  76 100 SW7       29.99R
$$

ILZ067-068-072-073-078-083-087-091-011300-
SOUTHEAST ILLINOIS

CITY           SKY/WX    TMP DP  RH WIND       PRES   REMARKS
LAWRENCEVILLE  MOCLDY    75  73  93 SW14      29.95S
FLORA*         PTCLDY    73  72  95 SW9       29.94R
FAIRFIELD*     PTCLDY    75  73  94 S8        29.94S
HARRISBURG*    PTCLDY    76  73  93 SW8       29.97F
ROBINSON*      CLOUDY    76  74  93 S12       29.94S
CARMI*         PTCLDY    75  74  97 S7        29.95F
$$

ABBREVIATIONS USED IN REMARKS
   TC - TEMPERATURE IN CELSIUS
  WCI - WIND CHILL INDEX
   HX - HEAT INDEX
  VSB - VISIBILITY
$$



USA.gov is the U.S. government's official web portal to all federal, state and local government web resources and services.